Zurück zum Katalog

STARLINK-3585

AktivKommunikationVLEO
NORAD 51875·PAYLOAD·🇺🇸 United States

Gestartet Mar 3, 2022 von Cape Canaveral Space Force Station

Loading…

Nächste Überflüge (nächste 24 Stunden)

TLE

AktuellSource: CelesTrak SupGP

Epoche: Sep 15, 2026, 01:46 UTC

1 51875C 22022Z   26258.07409722 -.00029110  00000+0 -83273-3 0  2586
2 51875  53.1578 228.9193 0001320  92.8785 214.4191 15.35417475    11

Verfolge STARLINK-3585 in Echtzeit mit AllMySat

Download on the App Store